FALCON 9 R/B, 62853

Orbit data source: Space-Track

FALCON 9 R/B, 62853 is space debris in HEO originally from a launch on Thu, 30 Jan 2025 UTC launched from the Air Force Eastern Test Range (AFETR). Debris objects in space refer to the collection of defunct objects orbiting the Earth. Examples of debris include non-operational satellites, rocket bodies, and fragments generated from explosions, collisions, or faulty payload assembly.

Loading next visibility...
Identifier
62853, 2025-021B
Orbit
HEO
Country
Flag of USUS
Related business
Manufacturer
SpaceX
Mission
Spacecraft
Bus & Motor
F9ST2, Unknown motor
Mass
~4,000 kg wet, ~4,000 kg dry
Launch date (UTC)
2025-01-30 (9 months ago)
Launch vehicle
Unknown
Launch site
Air Force Eastern Test Range (AFETR)
Object type
Payload
Rocket body
Debris
Shape & HBR
Cyl, 8.0 m
Radar Cross Section
39.980 m², Large (>1 m²)

Expand to show TLE details & history
Last TLE update: 5 days ago

TLE from 5 days ago
0 FALCON 9 R/B
1 62853U 25021B   25314.18041896  .00000282  00000-0  33716-2 0  9990
2 62853  24.9731 296.1453 8290619 257.0009  10.4234  1.11081875  3155
Epoch: 2025-11-10T04:19Z
TLE epoch observation values (Epoch: 2025-11-10T04:19:48.198Z)
Latitude
-0.00027°
Longitude
-178.67484°
Altitude
8,622.434 km
Speed
6.559 km/s
True Right ascension
19h 43m 26s
True Declination
0° 00' 01"
Sunlit
Object was in daylight at epoch
Visualization orbit readout
Latitude
Unknown
Longitude
Unknown
Altitude
Unknown
Speed
Unknown
Apparent Right ascension
Unknown
Apparent Declination
Unknown
Sunlit
N/A
Visualization observer readout
Local Sidereal Time
21:49:12
Azimuth
Unknown
Elevation
Unknown
Doppler factor
Unknown
Orbital elements
Apogee altitude
65,664.023 km
Perigee altitude
354.686 km
Semi-major axis
39,387.491 km
Eccentricity
0.82906
Inclination
24.9731°
RAAN
296.1453°
Arg. of periapsis
257.0009°
True anomaly
103.7124°
Mean anomaly
10.4234°
Eccentric anomaly
42.53886°
Mean motion
0.27766 °/min
Orbital period
1,296.57 mins
BSTAR
0.0033716
Loading maneuver chart data...
Computing Atmospheric mass density...
Loading historical data...
Loading historical data...
Loading historical data...
Loading historical data...
Loading historical data...
Loading historical data...
Loading historical data...
Other satellites on launch #21 in the year 2025 (2025-01-30 UTC)

Documentation

Showing up to 5 results
|